Regional Weather Roundup
Issued by NWS Albany, NY

Home | Current Version | Previous Version | Graphics & Text | Print | Product List | Glossary On
Versions: 1 2 3 4 5 6 7 8 9 10 11 12 13 14 15 16 17 18 19 20 21 22 23 24 25 26 27 28 29 30 31 32 33 34 35 36 37 38 39 40 41 42 43 44 45 46 47 48 49
000
ASUS41 KALY 270910
RWRALY

NEW YORK STATE HOURLY WEATHER ROUNDUP
NATIONAL WEATHER SERVICE ALBANY NY
400 AM EST FRI FEB 27 2015

NOTE: "FAIR" INDICATES FEW OR NO CLOUDS BELOW 12,000 FEET WITH NO
SIGNIFICANT WEATHER AND/OR NO OBSTRUCTIONS TO VISIBILITY.

NYZ032-033-038>043-046>054-057>066-NYZ062>081-271000-
EAST


CITY           SKY/WX    TMP DP  RH WIND       PRES   REMARKS
ALBANY         FLURRIES   8  -4  58 N3        30.28R
GLENS FALLS    MOCLDY    -1  -8  72 CALM      30.26R
POUGHKEEPSIE   PTCLDY     5  -1  76 CALM      30.24R
NEWBURGH       PTCLDY     5   0  78 CALM      30.22
MONTGOMERY     MOCLDY     1  -3  83 CALM      30.22R
WHITE PLAINS   MOCLDY    15   1  53 N8        30.20R WCI   4
ISLIP          CLOUDY    20   7  57 N8        30.21R WCI  10
NEW YORK CITY  CLOUDY    21   8  57 NW7       30.24R WCI  12
CENTRAL PARK   MOCLDY    20   5  52 VRB5      30.25R WCI  13
$$

NYZ005>009-017-018-044>046-055-056-271000-
CENTRAL


CITY           SKY/WX    TMP DP  RH WIND       PRES   REMARKS
FULTON         PTCLDY     3  -2  79 CALM      30.28R
SYRACUSE       LGT SNOW  10   2  68 W3        30.28S
ROME           CLEAR     -5  -8  87 CALM      30.31R
ELMIRA         PTCLDY    -1  -4  87 CALM      30.26R
BINGHAMTON     PTCLDY     3  -2  79 NW5       30.16R WCI  -6
MONTICELLO     MOCLDY     9   3  78 NW8       30.14R WCI  -4
$$

NYZ026>034-041>043-271000-
NORTH


CITY           SKY/WX    TMP DP  RH WIND       PRES   REMARKS
WATERTOWN      PTCLDY    -8 -12  83 SW5       30.29R WCI -19
FORT DRUM      NOT AVBL
MASSENA        PTCLDY   -11 -18  71 CALM      30.30R
SARANAC LAKE   CLEAR    -15 -19  82 CALM      30.10R
PLATTSBURGH    CLEAR     -7 -12  79 CALM      30.26R
$$

NYZ001>004-010>016-019>021-271000-
WEST


CITY           SKY/WX    TMP DP  RH WIND       PRES   REMARKS
NIAGARA FALLS  LGT SNOW   5   0  79 NW5       30.31S WCI  -4
BUFFALO        FLURRIES   7  -2  66 NW7       30.30R WCI  -5
DUNKIRK        LGT SNOW   4  -1  80 W3        30.33R
JAMESTOWN      CLOUDY     1  -2  85 N9        30.18S WCI -14
WELLSVILLE     CLEAR     -1  -5  82 NW5       30.14R WCI -11
ROCHESTER      PTCLDY     6   2  83 W6        30.29R WCI  -4
PENN YAN       CLEAR      5   0  79 SW5       30.24R WCI  -4
$$

             KEY
       WCI = WIND CHILL INDEX
       VSB = VISIBILITY
       HX  = HEAT INDEX
$$


USA.gov is the U.S. government's official web portal to all federal, state and local government web resources and services.